Regional Weather Roundup
Issued by NWS Burlington, VT

Home | Current Version | Previous Version | Text Only | Print | Product List | Glossary On
Versions: 1 2 3 4 5 6 7 8 9 10 11 12 13 14 15 16 17 18 19 20 21 22 23 24 25 26 27 28 29 30 31 32 33 34 35 36 37 38 39 40 41 42 43 44 45 46 47 48 49 50
853
ASUS41 KBTV 252130
RWRBTV
VERMONT REGIONAL WEATHER ROUNDUP
NATIONAL WEATHER SERVICE BURLINGTON VT
500 PM EDT SAT MAR 25 2017

NOTE: "FAIR" INDICATES FEW OR NO CLOUDS BELOW 12,000 FEET WITH NO
SIGNIFICANT WEATHER AND/OR OBSTRUCTIONS TO VISIBILITY.

* THESE REPORTS ARE NOT UNDER NWS QUALITY CONTROL AND/OR DO NOT
  REPORT WEATHER SUCH AS PRECIPITATION AND FOG.

VTZ001>019-252200-
_____VERMONT_____


CITY           SKY/WX    TMP DP  RH WIND       PRES   REMARKS
BURLINGTON     CLOUDY    34  22  61 N8        30.38R WCI  27
MONTPELIER     CLOUDY    35  28  75 NW8       30.35S WCI  29
MORRISVILLE    MOSUNNY   35  24  64 NW9       30.35S WCI  28
ST. JOHNSBURY*   N/A     38  25  59 MISG      30.31R
LYNDONVILLE*   FAIR      34  22  63 W9        30.32R WCI  26
MIDDLEBURY*    CLOUDY    34  28  77 N7        30.36S WCI  28
RUTLAND*       CLOUDY    35  33  92 NW6       30.33R WCI  30
SPRINGFIELD    CLOUDY    37  33  85 CALM      30.32R
HIGHGATE*      FAIR      32  18  56 N6        30.40R WCI  26
NEWPORT*       FAIR      32  21  63 N6        30.33S WCI  27
BENNINGTON     CLOUDY    35  32  88 CALM      30.30S
SUTTON*          N/A     36 N/A N/A MISG        N/A
ISLAND POND*     N/A     36 N/A N/A W7          N/A  WCI  30
GALLUP MILLS*    N/A     34 N/A N/A MISG        N/A
UNION VILLAGE*   N/A     37 N/A N/A MISG        N/A
MT. MANSFIELD*   N/A     21 N/A N/A NW20        N/A  WCI   6

_____LAKE CHAMPLAIN_____


CITY           SKY/WX    TMP DP  RH WIND       PRES   REMARKS
BURTON ISLAND*   N/A     34  23  64 N3          N/A
COLCHESTER RF*   N/A     32  25  74 N10         N/A  WCI  24
DIAMOND ISL*     N/A     34  25  69 N17         N/A  WCI  23

$$

NYZ007-026>031-035-052-083-087-252200-
_____NORTHERN NEW YORK_____


CITY           SKY/WX    TMP DP  RH WIND       PRES   REMARKS
PLATTSBURGH    CLOUDY    32  18  56 NE7       30.39S WCI  26
SARANAC LAKE   CLOUDY    30  28  92 E6        30.30R WCI  24
MASSENA        CLOUDY    35  27  72 NE5       30.41S WCI  31
POTSDAM*       MOSUNNY   37  30  75 NE5       30.38S
STARK FALLS*     N/A     34 N/A N/A NE1         N/A
WATERTOWN      CLOUDY    37  31  78 NE14      30.37R WCI  28
FT DRUM        CLOUDY    35  29  80 NE8       30.35R WCI  28
ALBANY         CLOUDY    37  32  82 N6        30.34S FOG
GLENS FALLS    CLOUDY    38  33  82 NE7       30.35R

$$
NHZ002-005-011-252200-
_____NEW HAMPSHIRE_____


CITY           SKY/WX    TMP DP  RH WIND       PRES   REMARKS
LEBANON        CLOUDY    38  33  82 NE3       30.31R
KEENE          CLOUDY    37  35  92 CALM      30.31R
MT WASHINGTON  PTSUNNY   18  -8  32 NW43        N/A  WCI  -5
PLYMOUTH       CLOUDY    39  27  62 NW13G18   30.30R WCI  31
WHITEFIELD     CLOUDY    36  22  56 NW8       30.29R WCI  30

$$

_____REGIONAL QUEBEC LOCATIONS_____


CITY           SKY/WX    TMP DP  RH WIND       PRES   REMARKS
MONTREAL       MOSUNNY   36  10  35 S7        30.40R WCI  30
QUEBEC CITY    MOSUNNY   36   3  25 NW10G17   30.33R WCI  28
SHERBROOKE     SUNNY     34   7  32 NW9       30.31S WCI  26

_____REGIONAL ONTARIO LOCATIONS_____


CITY           SKY/WX    TMP DP  RH WIND       PRES   REMARKS
OTTAWA         MOSUNNY   37  19  48 NW6       30.39S

______KEY______
VSB  - VISIBILITY IN MILES
WCI  - WIND CHILL INDEX
HX   - HEAT INDEX
$$
NNNN




USA.gov is the U.S. government's official web portal to all federal, state and local government web resources and services.